GFSWCAN_prec_cthk_015.txt.gz
RH
26 28 29 33 35 43 50 55 59 60 62 64 66 69 70 71 71 77 81 84 86 82 76 78 80 80 80 79 72 64 65 71 72 74 80 73 84 69 64 50 49 67 67 88 76 74 69 59 57 67 65 48 37 30
29 34 34 34 36 41 51 61 68 70 73 76 75 71 68 71 78 84 86 90 94 93 81 76 71 67 70 69 69 70 68 71 69 83 85 93 95 93 75 71 53 68 70 67 76 69 59 64 70 71 71 65 55 41
30 35 39 38 38 39 46 56 65 72 82 82 81 81 75 72 69 75 79 84 89 89 84 85 79 67 63 61 67 79 83 84 82 86 94 97 98 96 89 65 66 62 74 69 74 65 64 66 71 76 73 71 65 53
29 35 38 37 37 37 37 43 53 60 72 84 85 84 84 79 82 77 74 74 84 93 86 72 68 61 58 62 68 73 79 91 96 94 97 98 98 96 98 86 86 79 82 76 75 73 66 70 79 77 78 76 67 60
26 31 36 37 34 30 30 33 43 51 63 78 83 87 89 90 88 89 88 82 85 91 82 69 61 59 64 73 74 75 84 92 94 85 85 97 95 95 97 95 89 88 92 86 78 66 67 68 75 81 78 78 74 68
23 25 29 33 32 28 27 29 33 44 58 73 83 89 92 93 92 94 93 93 94 94 85 76 62 62 64 66 70 74 77 84 83 85 88 84 85 96 97 97 98 90 94 96 92 77 66 71 93 96 91 87 77 72
21 22 23 25 28 29 28 29 32 39 48 56 68 81 84 85 94 97 98 98 98 98 98 87 75 68 69 69 67 72 79 79 84 83 81 85 85 92 97 97 97 94 96 97 94 85 72 78 83 92 90 85 83 78
19 19 20 21 22 27 29 30 34 36 39 47 61 75 85 89 92 96 97 98 98 98 98 97 93 89 83 75 71 73 76 84 88 89 87 94 95 92 90 91 96 96 91 93 98 92 72 70 91 94 91 94 82 77
16 17 17 19 22 26 29 32 34 36 37 42 56 69 79 85 91 92 96 98 98 98 98 98 98 97 96 93 87 89 89 94 93 96 97 97 97 98 92 91 83 94 92 97 99 96 81 72 92 90 87 85 77 75
22 17 17 18 22 26 28 34 36 36 38 44 54 68 76 81 83 89 90 96 98 98 98 98 98 98 98 98 96 94 96 98 98 98 98 98 99 95 88 96 85 87 97 92 96 95 85 80 84 82 83 82 76 69
33 25 19 20 24 27 27 35 37 33 40 48 56 66 72 83 89 91 96 97 98 98 98 98 99 99 97 98 97 97 98 98 99 98 98 99 99 98 97 98 95 98 94 88 83 86 85 80 80 82 80 79 77 74
38 34 28 27 28 25 27 37 43 39 45 52 55 64 70 81 89 93 96 97 98 98 99 99 98 99 98 97 98 97 98 98 98 97 97 98 98 99 98 98 96 92 92 95 97 96 92 89 84 79 81 85 82 84
34 35 32 29 24 26 39 50 50 49 53 50 57 66 76 82 94 95 96 97 98 97 97 97 97 95 98 96 97 98 97 98 97 98 98 98 98 98 99 98 99 98 96 93 95 95 96 95 94 90 90 88 83 79
30 31 30 27 22 32 48 55 50 52 55 54 59 72 83 94 96 98 99 98 95 95 92 93 90 91 90 91 94 95 97 95 98 98 98 99 99 98 99 98 97 97 97 97 95 93 95 94 94 92 89 87 83 82
26 24 23 21 23 34 46 46 47 56 54 56 66 82 88 94 92 92 92 92 93 91 85 88 84 81 82 86 90 94 96 99 99 99 99 99 99 97 95 95 92 93 93 93 94 94 94 89 86 84 77 76 70 77
23 22 19 19 26 35 41 45 49 53 54 64 76 84 81 79 82 80 86 84 85 82 81 79 80 83 87 90 91 97 98 98 99 99 99 97 96 94 90 92 88 86 84 81 82 83 85 85 86 83 80 75 75 78
22 23 25 27 36 45 50 52 53 52 61 71 77 77 73 71 75 73 78 80 80 78 75 76 82 89 90 93 92 96 98 99 97 97 95 89 86 90 83 83 85 80 79 79 77 77 79 82 85 82 79 82 78 75
27 31 34 32 36 45 51 58 58 66 72 75 75 73 71 68 68 66 66 63 66 69 73 79 83 84 91 97 98 97 95 96 94 91 89 86 80 77 84 89 82 76 73 65 63 63 60 60 60 62 68 72 75 80
36 37 39 39 40 50 56 59 62 71 77 77 76 71 62 56 52 50 52 53 52 56 59 66 78 86 91 92 93 91 87 87 87 88 86 81 78 65 63 66 71 79 78 74 68 61 57 56 57 56 55 54 55 56
45 44 44 45 46 53 57 63 65 69 73 73 71 69 69 67 64 57 50 47 45 43 46 56 68 72 75 78 75 78 80 79 76 77 78 77 75 72 67 64 60 59 61 57 54 52 51 49 46 42 40 39 40 42
48 47 46 46 50 55 60 63 67 75 80 83 83 78 77 72 62 64 63 60 60 62 64 63 57 60 64 65 62 60 60 59 59 63 63 62 62 60 59 60 60 59 59 59 58 55 53 52 51 49 47 45 44 42
46 49 51 53 55 56 57 63 68 73 81 82 82 77 75 81 66 54 55 56 61 66 68 69 68 64 63 63 64 66 67 67 67 67 66 66 69 71 68 65 64 64 64 62 59 60 59 56 55 54 54 54 52 50
52 51 54 63 68 69 71 71 73 80 81 68 65 62 61 70 62 51 56 59 60 61 59 56 56 59 62 61 58 58 59 58 59 59 60 62 64 66 68 70 72 70 67 63 59 55 51 48 47 47 47 48 47 46
59 59 62 62 62 61 61 65 62 60 67 62 58 61 61 63 54 52 57 54 51 50 47 47 43 43 43 44 43 45 46 45 44 43 44 46 48 49 52 53 53 52 48 44 39 33 29 27 26 26 29 32 38 42
55 56 64 58 53 51 48 45 43 50 53 60 60 60 59 56 57 55 50 46 47 48 48 49 48 41 38 38 39 39 38 36 34 34 35 34 34 37 39 40 38 35 32 28 24 25 26 27 28 29 30 31 32 33
45 42 43 46 44 42 43 42 43 44 48 56 60 58 57 54 51 52 48 48 50 50 48 41 41 41 40 40 40 39 39 38 38 36 34 33 32 33 34 34 34 34 32 30 30 32 34 33 34 35 37 38 38 38
42 43 46 45 46 43 41 39 35 33 40 48 54 60 56 53 50 47 42 43 45 49 46 41 39 39 39 39 39 39 39 38 37 35 34 34 35 34 35 35 36 36 35 36 36 36 36 36 36 36 36 36 36 37
44 44 44 45 47 46 47 45 43 42 43 46 53 49 48 46 47 44 42 43 48 48 45 44 40 36 36 38 40 41 42 42 42 40 37 37 37 37 38 38 39 39 40 40 40 40 41 42 44 45 45 45 44 44
54 54 49 49 52 53 53 49 46 47 45 48 54 55 52 50 52 54 52 50 51 55 53 45 42 37 38 39 40 43 44 43 41 39 37 38 39 40 41 42 42 41 42 43 45 48 50 52 52 52 51 50 51 52
53 51 47 47 53 57 55 54 55 59 63 61 61 58 59 60 61 63 62 60 61 62 57 49 44 43 43 42 43 44 46 45 43 42 40 40 41 42 43 44 45 46 47 50 52 53 55 55 56 57 57 57 56 57
50 50 45 45 46 46 49 54 59 67 73 61 62 66 68 68 67 68 67 68 68 67 61 51 49 49 47 45 47 49 48 48 49 48 47 47 48 49 48 48 49 52 54 56 58 60 63 64 65 65 65 64 64 65
42 43 44 44 43 43 46 50 58 69 74 63 66 71 73 77 75 71 69 71 71 67 56 51 52 53 50 48 49 49 50 52 53 54 55 56 59 60 60 59 60 62 65 66 67 69 71 72 72 71 70 71 72 72
40 40 41 42 43 45 46 51 56 58 58 59 66 73 76 79 78 74 73 72 70 62 52 53 54 53 52 50 50 50 53 55 56 58 61 64 66 66 68 70 73 72 72 74 76 77 78 78 78 78 78 77 76 74

GFSWCAN_prec_cthk_021.txt.gz
RH
18 19 19 19 21 23 24 26 29 31 31 34 51 72 87 97 98 98 98 96 85 83 81 86 89 84 83 81 80 75 74 73 76 77 72 69 74 65 55 39 39 44 49 56 49 48 45 33 37 43 51 47 42 41
18 19 20 19 18 20 22 24 27 28 29 33 46 71 86 98 98 98 98 98 95 88 79 77 75 75 74 74 73 73 68 67 72 77 77 81 78 72 71 61 49 48 41 56 42 37 34 36 40 46 47 45 46 44
20 21 22 20 18 19 18 20 24 26 27 32 48 71 82 94 98 98 98 98 97 92 83 76 73 72 68 65 68 70 73 79 76 79 91 93 92 85 87 72 70 62 60 53 44 39 41 33 35 46 45 45 48 51
18 20 19 18 16 15 16 19 24 25 26 33 52 71 79 86 95 98 97 98 98 98 95 81 70 65 69 68 68 71 78 83 85 92 95 96 95 89 88 82 80 72 70 59 57 43 34 34 35 45 42 39 45 53
22 24 24 22 20 17 17 22 24 23 23 33 53 71 79 85 91 95 94 95 98 99 96 91 78 69 65 68 75 77 83 86 89 90 90 90 89 88 87 86 83 76 66 63 48 46 45 41 46 50 48 48 53 60
34 39 39 37 30 22 22 26 25 22 22 35 47 63 74 81 88 91 91 91 95 97 97 95 87 79 76 76 76 80 85 90 91 90 88 85 83 95 93 85 75 80 75 63 56 56 49 51 44 47 55 56 61 73
39 39 37 36 34 31 29 26 23 20 30 35 44 57 71 76 86 93 97 98 97 96 96 95 93 89 90 91 90 93 94 91 93 94 92 89 90 96 95 88 79 87 87 81 64 57 48 51 48 54 66 74 78 83
37 33 32 32 35 33 28 23 26 33 36 42 49 61 70 78 85 91 94 94 96 96 95 97 97 96 99 97 97 97 97 97 97 97 97 95 96 97 91 82 86 92 92 92 84 65 57 62 62 72 89 89 89 87
29 28 28 31 32 28 25 35 39 39 43 43 55 66 76 81 85 89 90 91 93 94 97 98 98 97 97 97 97 98 98 98 98 98 97 98 98 98 91 94 96 92 88 90 84 78 76 77 83 90 96 96 95 82
27 29 28 28 26 23 36 41 43 42 45 53 62 69 76 84 85 86 85 89 93 94 97 99 99 99 99 98 96 97 97 98 98 98 98 98 98 97 98 98 98 98 97 86 86 85 85 89 95 98 98 97 91 88
28 28 25 21 19 28 40 44 41 43 50 54 66 74 82 83 84 86 89 92 93 93 98 98 99 98 96 97 97 97 98 98 98 98 98 98 98 98 98 99 98 99 94 86 79 84 86 93 90 97 98 95 92 87
28 26 25 19 21 33 37 39 39 43 50 58 71 76 80 81 85 88 92 95 97 98 99 98 98 96 95 94 96 97 97 98 98 98 98 98 98 99 99 99 99 97 89 86 82 82 84 98 98 97 98 97 98 98
27 23 24 29 28 34 35 38 40 45 49 56 66 71 82 85 89 91 93 96 97 96 94 94 92 92 90 90 93 96 96 97 97 96 98 98 98 99 98 97 98 99 96 95 98 98 99 98 97 93 98 98 97 94
28 21 29 38 35 34 36 38 40 45 48 53 58 70 83 93 96 96 95 96 93 90 85 86 86 84 82 82 86 92 91 93 94 97 98 98 98 99 98 98 97 97 98 98 98 98 97 94 94 93 94 95 93 92
27 24 32 40 44 41 40 41 40 40 42 46 51 66 68 82 88 89 89 86 83 81 80 79 78 78 78 77 83 86 90 96 98 98 98 97 94 93 94 94 93 96 95 96 95 98 99 96 96 97 94 92 91 86
28 28 34 41 44 45 48 48 44 45 46 49 55 57 53 52 61 67 73 75 74 76 77 76 78 74 79 82 85 91 92 96 99 98 98 93 85 85 83 82 83 85 88 89 90 91 90 93 94 95 93 93 93 92
34 30 36 41 45 45 49 47 50 47 52 58 60 56 56 52 49 49 52 53 54 55 62 71 79 87 87 90 89 91 96 97 94 88 82 78 80 74 76 77 73 70 71 71 74 74 75 80 81 83 85 90 90 89
40 37 37 41 45 46 50 53 52 56 61 62 64 58 52 53 52 48 48 49 52 52 58 63 68 80 86 91 92 96 98 94 94 88 75 69 70 72 69 66 63 61 60 59 57 59 58 55 55 56 56 60 61 64
40 40 42 43 47 48 52 54 58 64 67 61 60 61 49 45 40 39 37 36 38 41 47 55 61 73 75 72 71 72 74 75 74 71 68 64 62 62 62 64 63 61 62 62 61 57 56 55 53 49 47 45 43 44
43 44 47 50 50 48 52 58 59 50 50 51 51 54 52 45 41 34 32 32 34 37 43 50 55 58 61 61 60 60 61 63 67 68 69 71 69 69 66 65 63 60 56 56 56 58 57 55 53 51 50 47 45 45
42 45 47 46 54 58 55 52 55 55 51 52 53 51 52 49 44 37 36 38 38 44 45 49 51 51 51 50 48 43 39 36 38 43 50 55 56 56 55 56 56 55 54 51 49 47 46 47 46 45 45 46 47 48
43 43 41 45 45 47 48 48 48 50 54 52 53 50 50 47 45 42 40 46 50 52 48 47 47 48 47 44 41 37 34 33 34 35 37 38 37 37 38 37 35 34 33 32 31 34 34 37 38 38 38 37 37 36
42 42 42 42 45 44 44 44 45 47 49 48 48 48 47 49 49 43 41 47 52 53 56 53 50 49 48 45 41 39 35 35 37 37 36 35 35 36 35 34 33 31 28 26 24 25 28 31 34 37 36 35 33 31
43 44 47 45 40 40 38 38 40 46 49 49 50 50 50 50 51 48 45 46 50 53 53 47 43 45 43 41 38 37 37 37 39 39 37 38 39 38 37 37 35 33 31 30 31 33 35 36 37 36 35 34 33 31
39 38 41 38 35 36 38 40 41 44 47 49 51 50 50 53 53 50 45 43 48 51 50 48 42 37 38 40 41 41 42 41 40 40 39 39 40 41 41 41 42 40 39 40 39 38 38 37 37 36 35 34 34 33
39 37 39 40 42 42 42 42 41 41 47 56 55 55 55 53 46 48 46 46 49 51 52 53 47 41 39 40 43 45 45 45 45 45 42 41 42 43 44 45 47 47 45 45 46 46 44 43 43 43 43 41 39 40
38 40 42 42 44 46 49 47 48 48 52 58 60 61 56 54 50 51 53 57 57 58 59 59 56 48 43 42 43 46 48 48 49 47 44 45 46 47 49 49 49 49 48 49 49 49 49 48 48 47 47 47 47 47
50 49 48 46 49 50 52 52 53 53 55 63 68 71 66 64 62 60 61 67 67 67 65 63 59 54 49 47 47 49 50 51 50 47 47 47 48 50 52 52 53 54 54 55 56 57 57 56 56 55 55 55 54 52
53 56 55 52 51 52 52 52 54 54 56 62 68 68 70 74 77 76 75 77 78 79 74 68 64 59 54 52 51 51 52 54 51 49 46 47 49 50 48 49 50 53 57 60 61 62 62 63 65 66 66 65 63 63
49 49 50 52 50 49 48 48 49 49 53 55 58 65 68 78 81 84 84 88 87 87 82 72 68 62 57 57 55 54 55 52 48 47 48 52 54 56 57 58 58 58 60 63 66 68 70 74 77 78 76 76 75 75
58 54 54 49 48 48 50 51 51 50 49 50 53 58 66 70 77 80 88 94 91 91 84 75 68 61 60 60 56 56 52 47 48 51 56 59 61 64 67 68 69 69 70 73 76 79 81 83 83 84 85 85 84 83
51 51 47 44 46 47 46 49 51 51 49 47 49 53 58 64 69 77 88 92 90 87 80 71 63 61 62 59 55 48 43 48 52 60 64 66 69 72 75 77 78 80 81 83 85 87 89 91 92 93 93 94 93 91
39 40 38 41 43 46 46 49 51 51 49 49 49 52 60 68 73 81 87 88 86 77 70 63 61 62 61 54 45 43 45 51 57 64 68 73 77 80 83 86 86 89 91 92 93 94 95 95 96 96 97 96 94 92

GFSWCAN_prec_cthk_024.txt.gz
RH
19 19 19 20 20 20 19 18 17 20 23 26 31 51 69 90 98 98 98 98 98 97 90 88 87 81 74 74 72 67 68 72 75 82 71 62 63 69 54 48 51 51 47 46 47 47 45 37 37 44 62 61 55 49
18 19 19 20 21 21 19 16 17 22 24 26 29 48 70 87 97 99 98 98 98 96 91 83 80 79 77 72 70 70 62 62 63 74 77 75 70 70 70 59 52 48 49 49 48 40 39 42 39 44 45 52 52 44
19 22 26 28 27 26 24 20 22 25 24 25 27 42 67 82 90 98 97 98 98 95 92 87 75 71 71 71 72 69 69 69 70 67 70 75 75 63 74 63 60 55 50 50 45 40 47 47 40 41 45 45 47 46
30 34 37 38 36 36 35 33 30 25 24 23 28 44 61 79 82 95 97 97 98 97 96 87 79 74 72 74 75 78 79 82 83 84 87 86 86 76 75 70 62 58 59 51 49 47 38 39 35 37 41 45 45 45
34 36 36 34 34 35 38 36 30 26 23 29 38 53 63 73 81 93 96 96 97 98 96 92 86 78 75 70 75 78 82 85 90 93 92 91 88 84 76 71 64 61 55 55 43 44 45 42 39 43 44 41 41 40
35 31 29 29 31 35 35 31 26 26 34 39 48 59 67 70 79 91 95 95 97 97 97 96 92 90 86 89 91 90 92 93 93 93 91 89 89 96 90 74 62 64 65 61 55 53 55 50 47 36 33 30 30 37
31 28 30 29 30 30 28 28 35 37 40 45 57 63 65 75 82 93 95 96 97 98 97 96 95 93 94 96 97 97 98 98 98 98 97 96 93 96 95 84 73 79 75 71 71 66 57 48 43 37 36 35 39 40
28 29 29 27 23 22 26 37 41 39 44 52 60 63 71 81 85 90 93 94 97 96 94 98 97 97 97 98 98 98 98 98 98 98 98 97 98 97 96 86 89 93 92 86 84 82 65 57 49 43 44 48 47 59
27 29 27 24 18 20 35 40 38 42 48 53 62 67 76 82 84 88 89 93 94 95 95 97 97 98 98 98 97 98 97 98 98 98 98 98 98 98 97 97 98 98 95 92 93 92 75 59 49 47 46 52 67 85
27 29 27 19 18 28 35 35 36 43 48 57 68 78 81 81 82 88 87 89 90 93 95 97 99 97 96 97 96 97 97 98 98 98 98 98 98 98 98 99 94 98 92 93 83 87 69 60 55 52 60 74 95 86
27 28 25 21 25 30 33 35 37 46 55 65 74 78 76 78 81 81 87 90 93 94 95 96 96 92 89 94 95 95 96 97 98 98 98 98 98 98 98 99 92 92 87 91 95 94 77 74 70 74 88 98 98 98
28 23 28 30 28 31 33 36 40 43 51 61 67 73 75 77 78 81 88 93 92 96 94 92 91 89 85 84 92 95 96 96 97 95 96 97 98 98 99 99 99 98 99 94 97 99 97 93 86 99 98 98 98 90
26 22 35 36 34 32 32 33 35 40 42 48 63 72 74 77 86 90 92 94 93 91 88 85 86 84 82 82 82 81 83 93 88 92 97 98 98 98 98 98 99 99 99 98 98 99 98 97 98 98 99 99 99 98
24 27 36 39 38 39 33 27 29 30 38 45 51 65 74 84 88 90 90 87 85 82 81 79 77 77 75 75 76 81 78 76 88 98 98 97 94 94 97 98 98 98 98 98 98 98 96 97 98 96 96 96 95 95
26 30 36 40 41 41 39 37 37 37 39 40 41 52 59 69 73 76 77 77 74 75 76 76 74 67 66 71 77 79 84 91 94 98 96 93 89 84 88 92 93 95 96 97 96 96 98 97 96 96 94 92 90 90
32 31 35 40 42 41 40 42 44 48 46 47 52 52 51 49 47 48 50 50 54 60 68 67 70 71 73 80 86 89 91 92 93 87 85 82 81 77 74 73 78 83 85 85 86 91 92 92 94 95 95 95 92 91
36 34 35 40 42 44 45 46 49 50 51 51 52 45 42 41 39 38 39 42 46 48 54 60 68 75 72 79 86 88 91 93 88 78 71 69 70 71 72 70 67 64 63 67 67 69 73 73 74 74 78 83 84 86
38 38 39 41 43 45 47 45 40 41 46 48 45 41 39 36 32 30 30 31 38 43 47 50 58 65 71 77 77 77 79 82 76 67 65 65 67 67 67 67 67 65 66 64 62 58 56 56 56 55 54 56 60 61
39 41 43 45 47 46 50 49 43 43 43 47 51 50 47 39 34 34 36 38 37 38 42 47 51 56 58 59 60 60 60 62 64 61 61 64 65 63 59 58 57 54 51 54 57 61 59 55 53 51 49 48 45 44
37 41 41 43 48 48 41 44 45 47 47 47 49 51 46 43 36 35 37 38 38 39 43 46 47 49 48 48 47 46 41 39 42 49 46 45 42 40 41 42 44 47 49 48 48 48 51 51 49 48 47 47 47 47
35 37 35 39 39 40 40 41 45 46 47 49 49 49 51 51 47 40 46 48 48 48 49 51 49 50 49 49 48 45 41 38 40 42 43 42 40 37 33 31 30 29 29 30 32 37 39 41 42 44 46 45 44 42
33 37 35 37 40 40 42 39 42 42 48 49 51 49 48 51 51 43 47 51 54 56 55 56 54 53 52 50 47 42 39 39 43 46 41 40 38 38 36 34 31 30 30 30 32 34 35 36 35 36 37 37 35 34
36 38 39 40 39 38 39 36 41 46 51 50 51 54 53 55 53 49 50 54 59 58 58 55 48 47 45 44 44 44 40 40 43 42 42 42 47 44 43 40 37 36 35 35 37 38 38 36 36 37 35 34 33 33
37 38 44 41 36 37 38 41 41 44 49 55 55 53 54 54 54 52 51 54 55 63 62 55 52 48 50 51 49 46 45 44 46 46 44 43 45 49 46 46 44 42 41 42 43 45 42 39 37 36 35 35 35 34
35 33 38 37 36 38 38 40 43 46 52 58 59 58 57 57 57 55 52 53 57 59 58 60 59 53 48 47 49 48 49 47 47 47 48 45 45 47 51 52 53 51 47 50 51 50 50 49 48 43 40 39 37 37
39 35 38 38 41 42 42 43 44 48 50 59 65 66 64 63 56 58 59 60 66 68 68 67 66 60 58 52 50 48 49 49 52 51 49 46 48 49 50 55 55 56 53 52 53 56 56 55 54 52 51 47 43 44
44 44 43 40 44 45 47 47 51 50 50 53 57 64 67 64 63 67 71 75 76 78 78 77 76 67 60 57 55 54 52 53 53 50 48 45 46 46 49 52 54 54 54 56 58 61 62 62 61 59 57 57 56 53
47 48 49 47 47 48 49 50 49 50 50 51 55 59 63 66 74 78 80 85 85 82 83 84 80 72 66 62 57 58 58 57 54 48 43 45 48 50 49 53 55 50 54 56 57 63 64 64 65 66 66 66 64 61
53 50 47 48 50 51 52 53 54 53 52 52 54 58 62 68 72 76 79 87 87 94 91 90 81 76 69 63 60 60 55 50 45 46 48 52 57 58 59 61 62 62 62 65 62 60 62 66 68 70 71 72 72 71
55 55 54 50 48 51 56 54 54 54 52 52 53 54 57 62 69 70 78 87 91 89 92 87 78 75 71 66 60 53 48 47 48 50 54 61 64 66 67 70 71 72 72 75 76 76 74 76 78 79 79 81 81 80
52 51 53 50 46 49 47 48 47 51 52 51 51 50 52 59 64 73 80 85 90 85 81 75 71 70 64 55 48 43 49 53 55 58 61 66 69 74 78 80 81 83 83 84 84 86 86 87 88 89 89 90 90 89
50 47 47 44 45 43 45 45 49 51 52 52 51 51 57 64 75 80 82 83 79 75 70 69 67 61 51 45 41 44 43 53 60 64 69 74 79 82 85 89 90 91 92 93 93 94 95 96 97 97 97 97 95 94
39 40 42 42 46 49 46 46 49 50 53 54 52 57 63 71 80 81 78 74 71 65 63 59 54 47 43 39 42 47 51 59 61 64 66 69 75 82 86 92 93 94 96 96 96 97 97 97 97 98 98 98 97 95

GFSWCAN_prec_cthk_027.txt.gz
RH
24 18 18 22 27 31 33 34 36 31 27 26 26 27 35 53 79 94 99 98 97 91 85 84 81 80 80 74 71 64 63 74 76 80 76 69 52 69 61 51 54 55 55 58 56 55 55 48 51 61 65 67 68 61
21 22 30 34 36 36 35 37 40 39 33 28 25 30 43 65 79 91 98 98 97 94 89 87 85 78 76 78 78 72 62 62 76 81 85 79 67 67 65 59 52 60 62 52 54 52 52 53 52 52 58 60 61 58
31 32 33 32 31 31 33 37 39 36 30 25 31 43 60 74 81 87 98 98 96 95 94 92 88 86 79 76 77 82 77 74 68 64 71 74 78 68 70 56 61 60 55 57 59 53 54 49 51 48 47 52 52 51
31 32 29 30 30 30 31 31 31 28 29 36 45 58 70 75 80 87 98 97 95 96 95 92 91 90 86 84 81 80 83 86 85 81 80 75 74 60 73 78 66 58 55 48 46 54 55 51 52 49 43 46 50 53
31 30 28 30 29 28 25 25 30 36 37 44 55 66 68 74 80 91 96 96 95 96 95 94 92 90 90 89 86 88 88 89 89 91 92 89 81 77 69 64 57 59 56 60 54 48 47 49 52 49 46 43 48 50
31 28 28 29 28 23 22 27 38 38 43 54 61 64 68 76 79 92 97 98 97 98 93 95 93 96 95 93 93 94 94 95 95 96 94 92 90 93 89 72 68 64 65 58 53 51 52 51 51 47 40 46 41 41
28 28 30 29 23 19 23 35 37 41 48 55 64 66 70 75 84 91 95 97 96 96 95 96 97 98 98 97 97 97 97 98 98 98 98 98 98 98 97 89 74 81 77 74 73 69 62 57 56 58 51 47 40 29
27 29 30 23 17 20 30 33 36 45 53 58 68 67 74 79 86 90 92 93 93 93 92 97 98 98 98 97 98 97 98 98 98 98 97 97 98 98 97 91 93 87 84 76 72 68 61 59 52 48 41 49 48 44
28 30 25 18 20 28 32 34 39 48 57 63 68 71 80 82 86 90 88 88 89 90 93 95 95 97 98 98 97 96 97 98 98 98 98 98 98 98 98 93 97 98 86 76 77 76 74 65 60 53 48 46 39 38
29 26 23 25 27 30 32 35 38 44 55 66 72 81 82 83 85 86 85 86 89 89 91 93 93 93 92 93 95 97 97 97 98 98 98 98 98 98 98 99 89 84 86 83 85 86 85 84 72 54 46 41 40 43
27 21 30 31 31 31 31 33 35 39 51 68 78 76 79 82 84 82 84 86 88 90 90 88 89 88 86 87 89 91 93 97 98 96 97 98 98 98 98 99 96 85 81 78 78 81 80 73 63 53 52 54 58 56
23 24 33 34 36 33 30 28 28 38 43 57 69 72 81 80 76 77 79 81 86 89 85 84 85 83 83 86 89 88 91 89 91 85 92 97 98 98 98 98 98 98 98 98 94 85 81 91 93 91 80 66 77 91
23 27 34 37 36 34 34 30 28 32 42 55 65 69 78 74 82 85 88 86 85 78 75 79 82 76 81 81 81 78 71 79 74 84 98 97 96 96 97 98 98 98 98 98 99 99 99 93 90 91 94 92 98 98
25 28 34 36 36 35 35 34 35 34 37 39 43 59 62 69 71 78 78 72 73 74 74 78 78 75 72 76 74 83 71 70 79 89 94 93 90 88 90 93 94 97 97 98 98 98 98 98 98 97 98 98 98 98
29 28 32 36 37 37 36 37 39 42 43 41 44 53 54 51 50 51 54 54 55 58 66 72 71 66 65 66 70 72 73 85 86 83 78 77 80 78 78 80 82 86 89 90 96 97 98 99 98 98 98 97 97 96
32 32 33 36 37 39 38 36 38 37 40 42 40 41 39 37 36 36 35 39 45 49 60 57 60 62 59 60 71 77 83 83 80 74 67 69 70 71 72 73 73 76 80 82 83 85 89 93 95 97 96 96 96 96
36 39 37 38 39 39 36 34 32 32 34 38 44 38 36 33 32 32 32 33 37 39 44 48 53 60 55 58 69 72 78 80 71 63 64 67 67 65 60 61 59 59 66 69 72 71 77 75 75 75 78 83 85 85
37 39 39 41 41 41 40 33 31 40 41 41 45 42 39 36 37 38 38 38 38 41 42 45 49 51 56 61 60 58 57 62 61 55 47 46 48 46 47 52 53 52 52 54 60 65 60 58 59 59 60 60 60 59
34 38 38 38 40 36 37 39 41 42 41 41 47 46 42 39 38 39 38 39 41 41 44 43 47 49 53 53 53 51 50 45 50 58 61 59 49 43 41 33 32 33 38 43 46 53 55 54 52 52 52 49 46 46
29 34 32 34 34 37 39 41 42 47 46 43 50 50 50 46 41 41 42 42 43 43 46 51 51 51 50 52 50 48 48 41 43 49 51 49 45 45 42 39 36 34 31 30 33 34 44 49 49 47 46 45 46 44
28 32 31 32 37 36 37 41 46 39 48 55 51 54 53 51 49 42 45 46 48 49 50 50 54 54 52 50 50 46 46 40 47 46 44 41 41 43 42 40 37 35 34 34 36 36 37 37 37 35 37 39 39 39
34 34 33 36 39 37 38 34 42 45 56 53 58 58 55 53 53 47 52 56 55 55 56 56 50 52 55 56 46 47 45 44 50 49 47 44 45 46 45 44 41 40 40 41 43 42 41 37 35 38 37 36 35 33
35 37 42 42 40 36 38 37 47 47 55 58 62 62 58 57 57 56 57 56 58 62 62 58 55 60 58 58 57 58 50 46 47 47 49 48 45 52 48 46 45 45 45 45 46 48 46 40 40 37 39 38 37 36
34 38 41 38 36 37 40 46 47 53 61 62 63 65 63 60 62 66 62 59 62 65 65 64 65 61 59 58 58 56 55 49 51 50 53 53 48 49 51 54 53 50 49 51 51 51 48 47 44 45 44 42 41 39
34 32 38 37 39 42 41 44 47 50 52 56 63 64 68 64 67 66 69 66 69 72 73 73 71 70 65 57 52 54 56 51 52 55 57 53 51 50 54 55 55 56 52 53 58 58 56 56 54 50 48 44 38 43
39 37 38 39 43 46 45 51 54 57 53 57 62 62 65 71 70 64 69 75 79 82 83 84 82 80 73 62 59 56 54 56 56 55 52 45 45 46 47 49 53 57 52 51 55 60 63 62 62 59 58 53 49 47
45 45 46 39 42 48 57 59 58 58 57 56 61 61 62 67 68 71 71 75 82 87 89 89 88 87 78 70 63 56 54 49 46 42 43 44 47 48 49 53 55 55 51 59 63 65 65 65 64 63 62 64 61 60
51 50 52 56 53 58 59 58 64 70 63 60 61 72 77 67 66 66 71 75 83 85 88 83 86 77 73 72 62 53 46 43 45 48 50 53 54 58 59 60 60 56 59 61 60 63 65 67 67 67 66 66 67 70
54 66 52 53 56 55 67 69 65 74 68 58 65 65 61 63 58 62 71 79 81 85 78 73 67 66 67 59 54 48 45 45 47 51 56 59 62 64 66 69 71 71 71 75 71 69 65 66 69 70 73 73 74 74
75 59 52 56 60 56 63 65 55 53 56 56 55 55 64 74 63 69 77 78 80 78 72 71 67 65 58 54 51 49 50 52 52 54 59 64 66 68 73 79 82 84 85 85 87 86 81 81 84 83 81 81 79 79
54 52 55 54 56 58 55 45 52 56 55 55 55 52 56 67 78 85 81 76 77 74 68 65 62 58 52 46 45 45 48 58 56 58 58 66 71 75 78 83 88 90 91 91 91 91 91 90 91 90 90 90 90 89
55 54 52 51 54 52 52 53 51 55 61 60 64 58 66 77 85 88 76 73 66 64 62 61 58 51 44 43 46 49 46 54 59 63 68 69 71 74 76 80 85 89 93 94 94 95 95 95 95 95 95 94 93 92
44 46 45 50 54 57 55 49 51 58 62 65 59 59 68 72 78 76 71 64 60 59 60 53 43 41 43 45 48 51 53 60 59 61 61 62 63 66 70 79 81 84 86 91 95 96 97 97 96 94 93 93 93 91

GFSWCAN_prec_cthk_030.txt.gz
RH
39 26 29 32 32 29 29 31 33 34 35 33 28 32 46 68 78 87 92 99 98 98 97 95 96 95 91 84 82 63 66 83 90 93 80 85 85 68 59 61 59 50 55 59 57 57 67 60 57 59 72 67 58 55
33 33 31 32 29 29 31 30 29 29 33 32 37 47 67 74 84 88 93 96 97 99 97 97 98 98 95 90 86 80 63 59 74 86 86 79 77 68 74 67 59 61 62 58 56 54 59 61 62 67 62 67 65 58
40 31 32 29 29 31 27 25 26 31 36 39 50 61 70 79 83 90 94 95 96 96 96 98 95 96 97 92 86 85 80 71 61 62 65 69 69 60 71 67 79 67 68 64 65 56 59 62 63 60 63 59 64 57
32 31 29 29 32 28 25 25 27 35 42 49 58 67 71 76 79 89 96 95 94 95 96 95 95 96 94 94 92 88 85 86 84 74 66 67 68 62 62 62 64 65 67 66 66 58 59 61 58 54 56 56 55 59
30 29 29 31 28 24 21 21 32 40 46 55 63 67 65 73 78 89 94 98 95 95 96 96 97 96 96 96 92 92 88 88 88 90 87 86 80 71 57 52 45 47 51 53 59 61 63 59 62 56 48 53 52 52
30 27 31 30 21 18 20 30 40 49 56 60 63 65 69 74 81 91 93 94 96 97 95 95 97 98 97 93 92 95 96 97 97 97 96 95 92 97 90 73 57 59 58 62 60 52 54 56 57 59 55 51 51 52
27 29 31 23 17 22 29 35 42 50 60 61 63 67 72 76 82 87 91 89 88 87 86 91 95 95 96 95 96 97 97 98 98 98 98 98 97 98 97 93 80 74 61 53 54 55 50 47 47 52 52 52 51 48
27 31 27 20 25 29 31 34 38 49 57 62 64 69 73 78 83 86 87 84 84 83 85 94 91 90 90 92 95 95 96 96 97 98 98 98 97 98 97 96 97 98 94 78 59 50 43 47 50 51 46 48 48 45
30 28 25 29 30 28 27 29 34 42 54 67 69 74 78 81 83 82 83 83 84 84 89 93 93 92 91 93 94 95 96 98 97 98 98 98 98 98 98 98 98 97 93 84 72 59 53 51 49 48 47 45 45 41
29 24 29 34 35 31 29 28 28 40 54 71 74 79 82 81 80 81 83 80 78 78 81 84 90 94 91 91 91 91 94 96 96 95 97 98 98 98 99 99 99 92 81 82 80 74 73 72 61 54 52 48 45 44
27 24 33 35 35 34 32 29 29 38 50 72 74 76 78 78 81 79 79 77 76 80 80 83 82 86 87 87 89 93 92 91 96 86 90 98 97 97 98 98 97 97 96 83 88 89 88 84 78 72 65 57 53 49
27 25 34 36 34 35 37 37 33 36 43 53 62 76 82 81 77 73 73 76 74 75 77 84 82 83 81 83 89 83 86 85 78 72 86 97 98 95 95 97 97 96 98 94 81 83 83 85 78 76 72 66 62 62
28 25 32 35 35 36 36 37 38 37 39 49 57 65 66 63 67 64 74 77 73 68 64 77 83 92 76 72 82 79 62 59 65 70 84 90 94 93 92 93 96 97 98 98 98 99 96 90 96 92 87 84 79 85
30 27 30 34 35 37 36 37 38 40 40 44 46 51 47 51 51 49 49 50 53 55 58 65 70 65 60 59 57 69 60 57 65 81 81 82 81 80 81 86 91 95 97 97 98 98 98 98 98 98 99 98 87 88
31 30 31 33 34 35 33 32 31 36 40 43 45 48 44 42 42 38 36 39 42 46 53 59 56 55 51 49 50 54 60 70 71 75 72 71 74 71 68 63 72 86 92 92 93 94 97 97 98 98 99 94 97 98
33 36 35 37 37 36 34 34 32 33 37 40 41 44 39 37 38 39 40 40 41 44 56 48 47 52 52 53 55 64 69 73 65 72 56 51 57 56 59 63 59 60 72 80 85 89 89 90 92 96 96 96 97 97
34 38 35 38 38 34 31 31 36 34 40 45 45 43 41 36 39 39 37 36 40 44 44 51 51 51 52 52 58 59 61 68 58 59 54 57 54 46 46 45 47 50 54 62 70 68 72 79 82 82 83 86 88 89
32 34 32 32 33 30 38 36 37 40 45 43 45 45 46 37 38 37 37 38 41 45 49 49 45 49 56 56 52 52 51 49 53 55 55 59 52 53 49 41 39 38 38 41 53 62 62 66 67 66 68 71 71 70
24 27 28 29 29 31 39 36 40 45 46 44 45 53 53 47 40 40 40 41 43 45 50 51 51 54 55 54 52 50 50 44 39 48 54 56 54 45 45 41 39 38 38 37 35 43 50 52 53 54 56 53 52 53
22 26 27 27 28 37 40 40 41 47 52 46 49 54 50 56 50 44 47 47 49 52 53 55 57 58 56 55 54 49 50 42 44 48 51 44 40 42 45 43 40 38 39 42 48 40 46 45 41 42 46 49 47 43
27 29 27 28 36 35 36 38 54 46 48 52 59 61 63 60 59 50 51 57 57 54 55 55 55 57 62 59 59 51 52 44 50 53 49 46 42 50 49 46 42 40 42 42 48 50 46 43 44 46 41 38 38 36
34 31 32 40 42 40 43 39 42 51 58 64 64 62 65 63 64 58 59 61 64 65 65 65 60 61 65 64 60 60 55 50 52 52 51 50 47 50 55 53 49 46 47 48 49 53 48 43 37 41 40 40 40 35
31 33 42 44 42 38 39 42 51 53 56 59 62 62 61 61 64 60 68 64 66 68 70 71 68 70 70 68 66 67 60 54 51 51 51 55 52 50 57 57 57 55 53 55 53 53 53 49 46 45 45 43 41 40
31 37 42 45 39 40 44 53 53 55 56 60 58 61 64 72 60 73 68 65 65 69 73 75 75 74 73 75 70 64 61 56 53 52 53 51 43 41 42 50 56 54 52 54 55 54 54 56 55 55 55 48 46 48
34 29 37 39 42 45 49 47 48 51 60 54 53 59 60 54 60 65 61 68 71 74 74 83 85 84 81 76 71 63 57 54 50 44 44 42 39 40 46 51 59 55 52 50 54 58 60 56 56 55 59 52 45 54
41 37 38 42 49 47 48 49 52 57 63 60 52 52 65 79 75 63 59 68 76 72 78 79 79 78 76 73 67 63 55 45 41 44 44 43 45 46 47 52 59 62 58 56 59 60 63 63 62 59 61 63 58 59
47 51 50 46 43 48 63 58 62 68 84 79 63 57 68 67 63 76 72 65 71 75 77 76 69 68 70 67 62 51 45 45 48 46 51 50 51 53 53 54 59 60 55 60 66 67 67 66 66 66 66 69 68 65
54 57 52 51 51 56 73 84 84 65 60 61 64 65 75 71 72 81 72 69 74 74 73 71 63 65 62 53 48 46 46 45 50 53 54 60 61 61 62 67 66 65 69 70 65 69 68 71 71 70 70 71 71 68
72 86 54 61 53 54 63 65 77 74 59 56 63 65 62 61 63 81 75 73 74 75 77 70 70 64 57 58 61 60 59 54 52 54 57 63 66 66 68 72 76 77 82 85 83 79 74 71 70 70 75 75 73 74
75 59 58 56 51 56 69 68 54 50 57 59 56 60 62 62 75 75 72 71 75 71 65 65 65 60 59 56 51 48 50 56 56 58 60 64 67 69 69 72 78 80 83 89 92 91 89 86 89 87 84 82 80 80
50 54 53 51 57 59 60 56 52 56 58 66 69 62 67 79 94 81 73 65 67 65 66 67 63 58 54 50 45 49 50 55 59 59 59 67 71 71 69 73 77 81 83 85 91 93 92 92 92 91 90 89 88 85
52 56 60 57 54 51 54 63 57 51 58 61 69 71 63 68 78 77 69 62 60 61 62 62 52 47 44 44 51 52 49 58 62 65 65 66 65 65 66 73 78 80 82 85 87 92 94 95 95 95 93 92 91 90
57 51 49 52 56 56 56 55 53 55 67 80 64 75 66 70 79 78 69 56 52 53 52 45 39 42 46 49 50 53 57 57 58 59 60 61 59 56 61 70 74 78 81 84 86 88 91 94 94 94 92 90 89 88

GFSWCAN_prec_cthk_033.txt.gz
RH
70 47 45 33 31 31 32 29 27 28 35 40 47 55 68 77 84 89 94 96 98 98 97 99 98 98 98 97 94 80 69 71 85 92 97 98 96 82 79 80 81 65 69 68 66 71 90 75 68 69 72 68 63 58
48 41 32 33 32 31 29 27 27 29 38 45 54 65 72 77 82 88 93 97 98 98 97 98 98 98 98 95 95 89 79 73 74 81 80 79 84 84 75 93 78 84 84 87 77 83 75 83 77 69 68 69 64 60
42 34 36 31 31 29 25 23 26 36 46 54 61 67 71 75 80 87 93 95 95 95 97 97 97 98 97 93 89 93 85 76 70 70 73 74 81 72 78 75 74 76 72 77 75 75 75 76 79 74 63 67 67 60
40 36 30 31 29 23 19 22 35 47 59 62 63 66 66 71 77 83 91 92 92 92 94 92 96 98 96 92 89 91 87 86 79 70 63 67 65 60 63 63 59 60 66 67 67 74 70 72 77 77 65 66 66 62
32 28 31 30 23 18 23 34 43 50 59 61 62 63 69 72 75 81 86 88 89 87 88 92 94 96 94 93 93 90 89 87 85 84 82 80 72 67 57 51 56 60 70 72 69 67 74 68 66 68 67 64 63 59
28 29 31 25 21 27 31 35 37 45 55 60 61 66 70 74 77 79 82 85 85 81 81 86 88 91 90 89 89 87 89 92 94 94 91 87 85 84 76 66 59 62 58 54 50 53 54 56 57 58 63 64 60 58
27 30 29 24 28 28 27 30 35 41 55 62 64 67 70 72 75 77 81 82 81 82 83 87 91 91 92 90 88 89 91 94 95 97 97 96 95 94 92 93 77 70 62 56 50 47 40 43 49 56 55 57 59 59
29 28 25 29 33 31 28 28 29 38 58 64 68 71 71 73 76 78 77 76 76 77 81 90 90 89 88 91 91 90 89 90 92 94 95 95 95 96 98 97 97 90 82 72 61 53 37 32 37 43 51 54 60 61
29 26 27 32 34 33 32 29 30 41 61 68 70 73 75 74 75 77 74 74 72 75 81 88 92 91 90 90 91 92 90 92 93 95 95 97 98 98 99 99 99 99 97 90 88 80 63 44 32 34 38 43 50 56
28 25 30 33 35 36 35 34 30 41 56 70 72 77 81 75 74 76 77 75 78 81 89 94 87 89 89 87 87 83 84 89 93 94 94 98 99 98 97 99 99 96 87 80 89 81 71 57 42 35 34 35 40 45
29 24 29 34 33 36 36 37 35 38 44 62 79 78 77 77 78 77 72 72 71 77 80 94 96 91 82 85 87 79 75 72 75 81 92 96 96 98 94 95 96 97 92 81 93 83 70 64 55 50 48 45 44 40
28 26 27 33 34 37 36 37 40 40 42 43 54 63 65 69 62 51 57 60 65 67 65 74 88 84 82 81 88 87 72 70 68 63 75 89 95 95 89 93 95 94 93 93 89 87 87 87 84 75 68 63 58 51
30 28 27 31 34 35 32 31 35 41 45 47 46 48 49 43 50 51 58 57 55 49 55 61 74 68 71 69 74 81 60 54 55 66 76 82 79 84 83 85 94 97 95 94 96 97 97 95 96 89 82 83 78 67
30 31 30 32 34 34 32 29 30 35 38 43 41 45 47 52 52 47 43 41 40 40 51 58 57 56 57 55 47 59 60 53 59 71 73 63 61 63 68 72 81 90 96 94 94 94 95 94 97 99 95 90 90 89
30 33 34 36 36 36 33 28 30 34 38 41 44 50 44 41 43 41 41 38 37 45 53 60 52 48 48 47 48 55 59 67 70 78 70 64 50 39 42 51 56 70 82 88 91 91 94 94 97 98 98 98 99 98
29 31 33 34 34 31 30 34 32 36 40 45 45 46 39 38 40 39 37 37 41 43 49 50 45 48 49 53 53 58 62 74 73 64 65 60 55 51 42 36 36 42 56 66 77 85 89 89 91 91 96 97 97 96
26 32 29 29 29 29 32 33 37 38 42 47 53 47 43 39 39 39 39 39 41 46 45 47 47 51 54 53 58 57 62 63 66 54 70 70 56 52 46 42 37 38 35 42 55 63 73 82 80 82 79 86 88 90
24 24 25 25 26 27 33 33 38 41 46 45 53 56 56 46 42 41 42 42 43 46 48 48 52 52 53 55 58 58 57 53 50 49 59 60 55 52 47 43 38 40 40 41 49 49 49 59 67 71 73 70 71 76
20 20 23 23 24 29 34 34 41 53 53 48 46 57 52 55 50 47 44 46 50 51 52 55 58 61 62 58 56 54 52 49 41 52 60 58 53 50 55 49 42 43 47 49 51 53 46 42 42 46 50 54 63 66
22 22 24 24 25 33 42 40 46 47 46 51 53 58 58 65 65 56 53 54 56 55 56 57 59 63 64 62 60 57 52 48 47 56 58 53 48 54 60 56 53 49 51 56 56 54 52 50 49 46 41 39 40 44
27 28 27 27 32 30 33 34 45 47 44 52 53 56 58 57 61 56 55 58 60 59 61 64 63 62 66 66 63 61 60 56 56 55 56 55 56 53 62 61 58 57 57 59 61 58 54 51 52 50 48 44 39 38
30 30 32 37 39 43 38 41 38 47 54 52 55 54 55 58 62 61 56 54 57 60 62 62 65 65 66 64 65 72 72 67 56 51 53 52 53 48 50 54 52 52 54 59 61 59 56 50 50 52 50 50 48 46
28 28 35 39 39 37 35 43 46 47 50 53 59 61 59 56 59 59 57 60 62 64 65 64 66 67 64 62 57 61 66 58 53 47 44 45 44 42 40 46 56 52 50 51 56 59 57 58 57 55 54 52 53 55
31 29 40 47 40 36 40 50 55 52 55 67 70 67 66 72 70 66 68 67 72 72 72 70 72 68 65 64 64 61 58 52 49 44 41 43 42 40 45 53 55 56 53 53 57 61 62 59 58 57 55 56 62 64
29 26 29 38 42 42 47 55 63 84 78 72 71 68 69 70 77 78 73 76 76 75 74 75 69 65 63 65 65 58 52 48 43 40 41 41 42 44 49 56 57 59 58 59 60 61 63 64 64 61 58 58 62 68
43 38 40 43 45 51 50 55 74 79 74 61 59 61 74 81 81 90 87 85 81 84 81 70 71 62 63 65 58 49 43 40 41 44 45 47 47 47 47 53 56 58 60 62 64 68 70 70 70 68 68 69 68 67
42 48 48 48 50 59 83 66 74 68 69 64 60 65 73 67 74 69 79 82 81 80 72 67 64 57 56 52 49 48 45 46 49 50 51 53 55 55 56 58 59 60 62 65 65 68 74 76 76 77 76 72 68 65
44 57 66 52 52 56 76 84 70 65 61 63 66 66 64 68 72 76 78 77 71 71 66 60 59 56 55 55 58 54 56 56 54 56 60 62 68 68 66 66 66 64 70 73 73 75 73 76 77 78 79 76 75 70
53 54 48 43 49 72 83 67 67 58 55 63 64 62 76 72 76 72 70 69 70 64 55 57 65 61 57 58 57 55 57 61 59 59 63 69 72 70 71 72 71 68 70 77 80 80 83 80 77 79 82 83 82 80
57 49 60 48 52 61 56 55 56 61 66 70 81 84 79 82 79 76 70 72 67 58 60 65 63 60 57 54 54 55 52 51 55 61 66 67 71 75 76 74 69 74 77 77 81 87 91 94 93 92 90 89 86 87
51 47 49 51 55 60 52 55 63 60 49 57 65 69 72 79 86 79 75 69 61 55 57 57 49 46 49 51 49 46 49 53 54 56 58 64 67 70 71 70 72 78 81 83 84 85 87 91 95 94 94 90 89 84
53 52 51 49 45 44 58 67 59 52 53 59 69 76 75 82 80 82 70 65 50 48 49 43 38 40 43 44 44 45 47 51 55 58 63 63 62 59 59 68 74 77 81 81 82 84 88 90 91 94 93 90 88 86
53 52 54 57 59 48 52 51 53 51 58 64 72 84 69 69 70 72 64 50 45 44 39 34 38 42 44 47 45 45 45 49 53 53 53 50 50 50 55 61 67 71 75 79 78 79 83 85 87 89 88 86 85 85

GFSWCAN_prec_cthk_036.txt.gz
RH
55 40 41 30 31 30 28 28 28 32 41 51 58 66 72 78 82 88 92 92 94 95 97 98 97 97 98 99 98 91 76 71 79 89 94 98 98 95 96 97 98 97 97 92 81 94 98 90 84 77 77 74 70 67
48 44 31 31 30 28 24 22 29 45 56 63 65 67 72 71 77 83 85 85 89 89 93 95 95 97 98 95 95 92 82 75 78 81 90 97 98 93 90 98 90 96 96 99 94 94 91 90 95 82 79 73 70 63
41 37 30 31 28 23 21 28 39 48 60 62 65 67 68 71 74 77 80 80 82 82 84 87 92 93 91 91 94 96 95 83 73 79 85 90 88 82 81 84 84 81 80 90 78 81 84 88 88 85 81 75 70 61
39 28 31 29 24 24 28 33 35 44 59 61 65 68 69 68 70 73 73 75 77 76 81 83 85 88 87 88 89 90 88 91 84 76 76 84 82 75 76 76 76 81 80 80 73 74 77 83 85 87 78 78 72 63
32 28 31 27 25 27 27 27 31 38 57 62 66 68 71 70 70 72 74 75 77 80 82 82 81 83 83 84 85 84 85 87 88 90 82 79 73 70 67 68 70 74 77 78 76 72 79 75 80 80 84 77 76 61
27 29 28 27 30 30 27 26 27 38 59 65 68 69 72 73 73 72 75 78 82 83 79 82 81 83 79 80 79 81 85 87 88 90 88 82 76 75 72 69 65 68 68 68 67 67 66 62 70 76 77 80 82 69
29 28 26 28 32 32 32 28 29 42 61 68 71 71 72 73 73 71 72 74 78 82 83 84 87 83 80 76 75 78 80 83 84 88 88 85 83 80 80 79 75 73 66 63 62 61 62 58 58 60 68 73 78 80
28 26 27 30 32 33 34 33 33 45 62 68 72 76 74 73 74 76 75 76 79 85 86 94 88 85 82 79 78 78 77 79 82 84 84 85 87 92 93 94 88 84 78 69 63 61 56 53 50 54 57 59 68 80
27 26 26 31 32 33 35 35 32 39 57 68 72 78 79 77 79 78 76 75 77 81 90 97 98 95 86 81 74 68 74 80 84 87 87 90 90 92 96 97 93 87 79 68 63 65 60 58 54 50 52 49 54 62
27 26 24 31 33 34 35 35 37 38 45 65 71 79 82 83 80 75 75 78 76 78 80 92 93 95 89 87 81 73 66 65 72 81 90 89 91 91 90 92 92 85 81 75 72 69 74 74 65 58 47 46 46 52
27 27 25 29 33 34 32 30 36 42 40 44 58 67 69 67 60 55 58 59 65 62 64 73 87 92 87 85 87 82 74 63 66 70 79 91 92 89 82 85 91 89 87 88 90 84 79 75 69 65 62 54 46 44
28 29 28 28 31 33 30 28 31 37 42 43 46 50 50 51 50 49 49 49 50 51 57 69 80 80 79 76 79 83 74 67 64 58 59 73 76 75 77 80 86 92 92 92 90 88 85 82 75 66 56 52 49 47
29 30 29 31 34 34 33 29 30 35 37 40 42 44 49 44 50 53 57 51 51 44 54 63 78 70 68 64 63 76 70 62 58 68 73 70 56 48 51 62 76 89 91 92 89 84 82 84 88 84 81 79 67 58
28 30 32 33 34 33 29 27 32 36 38 41 46 43 44 45 46 46 47 44 41 48 51 51 55 56 55 58 51 58 59 57 67 72 74 68 60 54 43 37 45 62 78 84 90 92 86 84 89 91 91 89 78 75
27 27 29 32 32 30 29 28 32 35 38 41 43 45 44 38 39 39 37 37 42 44 47 50 50 44 50 50 49 51 53 68 76 70 65 69 65 57 49 41 38 40 49 61 72 82 90 91 87 89 91 90 93 92
24 24 27 26 27 28 29 32 33 36 39 43 44 48 48 43 39 38 37 36 39 41 45 47 48 50 49 51 53 60 63 67 71 65 62 59 56 54 47 41 39 40 43 50 55 55 70 84 88 87 88 90 93 96
22 21 23 23 24 24 29 33 37 40 42 48 50 48 54 54 46 45 39 39 42 43 47 48 48 54 56 55 59 62 64 62 57 60 60 56 56 52 46 45 40 41 43 48 49 50 51 54 67 77 80 83 87 88
20 18 20 21 22 25 32 35 39 41 47 47 56 55 57 54 51 57 46 46 48 48 48 50 52 54 56 58 64 63 62 62 59 57 60 59 57 52 52 50 46 44 46 52 57 52 52 53 49 51 62 74 74 76
22 18 19 21 23 28 33 37 42 51 51 52 53 54 56 58 63 54 53 52 51 51 52 56 60 64 67 67 70 68 64 54 50 64 65 62 54 51 54 54 54 52 50 55 58 57 56 52 51 48 43 43 56 67
25 23 23 23 23 28 36 38 39 46 47 46 48 49 54 55 55 57 57 55 51 55 56 59 62 66 69 70 66 61 58 58 62 68 68 62 60 58 58 54 54 55 54 55 58 60 61 57 52 51 48 42 39 42
24 26 25 29 32 33 31 33 34 43 44 47 50 48 52 55 60 71 73 56 55 64 64 62 64 68 68 65 62 62 65 63 64 62 57 55 51 51 51 50 49 47 46 46 47 48 52 53 52 52 52 47 45 44
24 25 28 33 36 38 33 36 40 43 52 59 69 69 57 65 72 66 63 55 56 62 66 67 64 63 62 61 60 67 72 65 59 53 49 49 45 46 49 50 52 52 51 51 50 48 47 45 50 55 55 52 50 50
27 25 32 40 39 33 33 45 58 62 63 60 61 66 65 72 76 68 68 71 73 71 71 71 68 61 60 61 63 68 67 60 52 52 53 49 47 48 48 49 54 55 57 60 55 54 54 52 50 49 48 53 55 57
26 25 31 37 41 42 41 54 64 72 69 66 59 57 64 83 86 68 79 84 77 76 79 81 73 61 59 60 63 63 57 57 57 46 43 43 44 48 53 55 58 59 60 62 64 63 59 58 59 57 55 54 56 64
29 27 29 37 43 47 51 55 66 70 69 65 56 55 67 72 72 76 92 81 81 81 84 73 65 63 59 57 56 58 48 47 44 46 47 48 49 49 51 54 60 65 66 67 69 69 67 65 63 63 63 63 61 60
43 42 44 46 49 56 63 65 71 70 71 64 57 63 72 79 78 80 77 76 83 86 73 64 58 61 57 55 52 52 52 53 50 51 52 51 53 54 55 59 60 60 58 62 66 71 71 70 72 74 73 70 67 66
41 43 54 62 58 61 69 71 71 66 65 73 75 80 79 89 88 76 72 74 74 69 70 60 63 55 52 51 58 59 58 60 56 57 59 60 62 64 63 65 67 67 65 67 71 74 78 79 79 83 82 77 73 67
44 51 55 53 47 49 65 70 60 74 83 75 69 91 86 79 79 77 80 77 76 75 63 60 61 55 56 62 72 62 64 64 64 66 67 68 71 70 70 69 72 73 68 71 75 75 75 77 81 86 86 84 79 74
46 45 49 53 53 59 73 60 60 66 70 68 68 76 81 78 74 75 74 74 76 63 64 69 64 53 56 59 58 58 61 65 65 64 68 70 73 74 76 74 75 74 70 71 74 79 77 77 82 89 89 88 87 84
44 44 46 50 56 58 54 57 69 71 66 61 70 75 78 80 74 69 72 65 57 59 58 54 54 57 57 56 57 53 49 49 51 54 58 64 68 72 73 77 78 74 72 73 74 77 85 85 88 92 92 90 89 88
55 48 49 50 51 52 48 56 58 58 64 69 72 73 78 76 66 70 67 57 51 53 50 43 42 45 43 42 39 38 39 43 48 53 60 66 69 70 71 70 73 73 77 82 81 79 83 87 90 94 93 91 89 87
49 50 50 53 56 49 49 59 66 72 73 72 69 73 75 68 69 72 67 54 46 42 37 35 35 34 36 40 41 40 42 49 53 54 49 45 44 50 56 61 65 72 75 79 79 79 82 86 87 91 92 90 88 85
43 50 53 52 54 54 56 58 62 70 77 74 74 78 75 66 65 65 58 49 42 37 33 34 34 36 39 42 40 39 41 44 45 43 40 40 42 44 48 52 57 60 62 67 70 73 78 80 83 86 85 83 82 79

GFSWCAN_prec_cthk_042.txt.gz
RH
35 29 27 28 27 25 26 27 28 34 48 59 63 65 65 64 64 65 66 70 72 75 77 81 85 91 93 99 98 86 72 90 95 98 98 98 98 99 98 98 98 99 98 98 96 97 97 90 80 82 81 79 72 61
33 27 27 27 27 28 29 28 27 34 50 58 63 65 63 61 61 66 67 69 73 78 76 76 82 88 90 95 93 75 75 95 97 98 98 98 98 98 98 98 97 97 97 98 97 98 95 95 90 85 83 78 75 71
31 25 26 27 27 31 32 30 29 41 52 61 67 72 62 62 62 66 72 72 74 78 77 77 80 84 89 86 77 77 75 86 95 96 97 97 98 98 98 98 98 97 97 97 94 91 95 91 95 89 83 79 75 73
29 25 25 26 28 32 32 32 34 47 54 62 70 75 71 68 68 69 72 76 76 78 80 78 79 79 80 84 80 76 78 80 83 83 84 92 96 96 95 95 96 97 97 98 96 89 89 91 88 89 83 79 72 70
25 24 26 26 28 31 32 33 33 46 52 59 67 74 75 74 75 76 80 81 80 77 79 76 76 76 74 75 82 82 83 82 84 82 81 81 83 90 89 90 89 93 96 97 98 96 95 93 87 85 85 81 75 73
25 24 26 27 29 31 33 32 33 41 53 60 69 73 77 78 79 80 83 86 81 85 88 84 78 79 77 74 73 69 73 84 88 91 94 93 89 86 84 85 91 88 89 92 92 89 90 91 90 88 86 80 77 74
25 24 24 26 28 31 33 32 33 37 48 60 66 74 84 83 82 75 77 79 77 79 82 84 84 87 88 85 79 75 64 66 72 89 95 96 96 91 91 90 90 88 88 88 89 84 76 82 90 89 89 82 80 78
24 24 26 25 28 30 32 30 32 34 40 52 62 66 78 85 74 64 66 69 72 70 70 79 93 95 93 94 87 84 69 58 57 59 79 92 91 93 94 95 91 89 84 79 80 86 84 77 76 75 72 75 77 88
23 25 28 28 27 30 33 32 28 33 37 44 54 57 58 63 61 56 54 55 64 59 69 83 87 92 85 80 79 78 71 65 62 57 53 59 78 88 89 96 95 88 82 80 76 79 75 80 78 73 73 71 70 74
23 26 29 29 28 29 32 29 26 32 36 38 44 49 51 52 50 48 50 50 50 57 65 71 78 78 74 67 67 68 66 63 64 65 62 61 60 58 67 70 81 82 82 82 76 71 73 74 74 74 74 73 68 69
24 27 29 29 30 32 32 27 29 35 38 40 44 46 47 49 50 49 49 51 52 55 56 60 64 68 68 63 62 64 64 63 64 64 59 65 64 55 51 48 57 68 71 68 72 77 77 75 77 77 75 74 71 72
25 26 28 31 32 33 30 28 31 35 38 39 42 44 48 48 50 48 44 45 47 47 51 57 62 69 66 62 62 61 64 63 65 62 62 68 64 53 50 47 49 51 58 59 57 59 71 75 74 74 77 76 70 69
25 26 27 28 29 31 29 28 31 35 37 39 43 47 45 43 44 44 48 47 46 45 48 54 64 71 68 66 68 62 62 63 64 63 66 62 58 54 50 46 46 50 54 56 53 50 52 64 75 74 70 73 73 70
24 24 25 25 26 28 26 26 28 33 37 43 49 53 53 56 57 50 48 47 46 47 47 50 66 69 65 62 61 59 62 60 62 68 66 63 57 53 51 46 44 46 50 52 50 46 43 44 54 63 64 67 73 77
24 24 22 21 24 24 24 25 29 35 40 45 51 54 56 55 57 53 47 46 46 47 49 58 57 53 54 54 54 53 56 66 68 68 63 62 62 56 55 50 45 47 48 52 51 49 44 40 43 47 58 69 68 69
24 22 21 21 20 21 24 26 31 37 43 47 51 53 57 54 55 58 47 47 46 44 50 47 51 53 57 57 56 61 63 65 62 65 61 62 64 61 62 56 50 47 50 52 55 55 53 49 44 44 45 55 68 67
25 23 20 18 18 22 23 28 34 39 43 45 49 53 60 60 58 58 51 48 48 46 50 53 56 60 62 62 65 68 65 63 58 58 55 61 65 68 64 57 52 52 51 50 53 53 53 54 49 46 44 42 43 59
24 22 22 18 18 22 25 32 38 38 42 49 51 55 57 56 58 65 68 66 62 62 60 53 55 61 65 64 66 66 62 60 54 49 55 60 61 59 55 54 51 50 48 47 45 45 47 48 47 47 46 44 42 41
23 24 24 22 20 22 30 34 40 40 42 48 48 52 57 62 64 71 74 77 76 70 72 67 70 73 77 76 71 60 56 54 56 58 61 60 57 51 47 47 46 49 50 49 47 46 44 42 42 43 45 46 46 44
25 23 23 22 24 26 32 36 41 44 46 53 56 59 64 75 77 73 70 75 79 78 77 78 77 83 82 84 80 63 57 61 63 61 58 54 51 45 44 47 51 55 54 52 52 52 51 48 44 43 42 42 46 49
24 24 23 24 28 31 32 32 43 47 58 63 63 64 64 65 76 65 66 71 77 81 84 82 89 85 88 73 60 61 61 63 65 59 44 40 41 43 46 48 52 55 58 59 57 56 57 56 51 48 48 45 45 47
25 25 23 26 31 34 35 45 56 63 62 66 69 68 69 71 70 71 72 73 76 82 82 82 86 88 70 61 60 57 62 66 63 52 46 43 44 44 44 45 47 53 60 60 60 58 59 61 60 56 53 54 51 52
23 22 26 36 40 38 42 48 59 63 67 68 69 71 71 73 77 77 77 74 77 78 74 77 80 71 59 50 50 63 63 58 55 57 54 50 48 47 49 52 55 59 62 60 60 61 63 65 66 64 61 62 59 57
27 23 29 38 46 50 48 53 64 67 64 65 67 70 75 77 75 71 64 69 71 69 73 75 65 58 56 47 50 51 56 59 60 60 60 61 59 57 57 58 60 60 60 61 63 65 69 72 72 68 70 71 68 65
29 30 33 36 42 52 56 60 65 64 66 66 67 73 76 76 73 67 64 66 64 65 71 62 58 53 51 44 48 53 57 61 67 73 66 61 66 66 66 64 67 65 63 63 61 66 71 74 78 77 77 76 73 70
39 38 44 48 52 56 56 60 63 73 75 74 77 77 77 77 77 75 72 66 58 59 62 57 50 47 49 50 53 55 64 73 71 57 61 62 64 75 80 77 85 76 74 69 70 74 76 78 81 84 87 85 78 73
40 43 45 48 50 52 59 64 70 79 80 83 82 81 80 78 76 70 63 57 52 56 54 49 48 46 46 51 67 70 59 52 50 54 57 61 71 73 78 80 76 79 78 74 74 80 85 84 85 85 85 83 83 78
37 43 46 49 54 56 62 72 72 75 80 78 77 77 73 72 69 64 57 48 47 48 47 49 49 47 52 51 46 42 41 43 50 56 59 60 63 74 77 74 73 75 73 68 72 78 84 86 87 88 85 84 84 86
42 45 47 50 53 57 62 65 71 72 71 69 72 75 71 71 68 61 56 46 40 37 41 43 40 40 41 37 35 33 34 39 46 50 55 61 66 67 67 68 79 83 80 75 73 75 81 84 87 89 89 90 93 92
43 47 49 50 55 59 59 64 64 64 66 67 67 70 73 74 73 62 55 44 39 30 31 33 33 35 35 35 34 32 34 38 40 43 45 50 52 54 56 62 69 74 76 75 72 76 82 84 86 90 92 92 92 90
49 54 55 54 55 56 64 64 64 60 64 65 69 70 72 74 72 65 56 42 36 30 30 31 32 32 33 35 33 33 36 38 39 40 41 38 39 44 51 57 61 63 67 69 69 72 78 82 86 91 91 90 88 86
53 51 51 57 60 58 61 61 62 59 61 63 69 70 73 77 79 71 59 43 35 30 30 31 31 31 34 34 33 35 36 35 33 32 34 37 40 43 48 52 54 58 62 65 69 71 76 78 78 81 81 80 78 76
56 55 55 51 52 53 58 56 55 58 60 62 67 71 74 81 84 75 61 46 34 29 29 29 29 31 34 32 33 34 33 31 33 35 35 37 39 42 43 44 46 50 55 58 61 64 66 67 69 70 70 70 69 68

GFSWCAN_prec_cthk_045.txt.gz
RH
34 29 26 26 25 28 29 30 30 41 50 54 59 66 63 63 65 63 64 67 67 71 70 71 66 67 71 72 79 82 89 95 96 98 98 98 99 99 99 98 97 96 96 97 96 96 96 96 92 87 82 83 78 75
36 28 26 26 25 29 30 31 36 45 51 56 62 66 69 66 68 68 66 67 67 73 72 70 71 74 75 75 78 88 92 96 98 98 98 98 98 98 98 97 98 98 98 98 98 98 97 98 92 89 89 88 81 78
37 27 26 25 25 29 30 31 35 43 50 56 62 65 70 73 73 72 70 69 68 73 72 68 71 69 70 75 82 89 89 91 92 96 98 98 98 98 98 98 98 98 97 98 97 97 98 97 95 93 92 92 80 80
35 25 24 26 26 29 31 31 34 41 48 55 64 66 68 73 79 78 78 73 66 72 72 65 73 72 69 66 67 81 88 90 89 91 93 95 96 95 98 98 98 98 97 97 94 97 97 95 94 93 90 88 81 79
34 24 24 25 26 29 31 31 32 38 47 55 60 67 76 79 81 74 76 77 68 67 65 68 75 75 75 71 65 55 63 81 86 87 91 95 94 95 93 95 97 98 98 96 95 92 98 96 95 91 89 88 88 85
32 23 24 24 25 29 31 30 32 33 42 54 60 63 77 83 74 66 69 72 72 72 74 85 83 84 83 85 73 61 48 48 69 89 91 93 96 97 94 96 98 98 98 97 97 97 98 97 91 89 86 84 82 84
26 22 24 25 25 28 31 33 31 32 39 47 57 61 65 75 68 62 65 68 70 70 76 86 88 93 83 93 76 73 59 47 41 61 88 91 92 95 94 93 95 96 97 97 97 95 94 91 94 92 90 85 82 82
22 22 25 27 25 27 31 30 28 31 36 40 49 53 55 59 59 57 59 59 66 59 70 78 79 80 77 76 79 75 72 58 50 49 50 59 82 85 88 90 92 92 92 94 97 96 96 93 92 92 93 87 83 84
22 22 26 27 26 28 29 28 27 32 36 40 43 48 50 54 53 52 52 54 57 62 67 71 72 77 73 70 69 74 71 67 59 54 54 52 53 66 75 75 74 82 85 82 86 94 94 91 89 90 94 90 87 91
22 24 26 27 29 31 31 28 28 33 35 37 40 44 47 49 51 50 48 51 54 58 65 68 71 75 73 69 67 69 69 67 65 59 56 57 55 49 48 49 63 69 63 66 70 79 82 85 84 82 85 95 92 89
23 25 25 26 30 31 30 28 29 32 35 37 40 42 45 45 49 49 49 50 52 56 59 63 69 71 75 72 66 65 70 68 69 65 61 63 61 52 46 42 43 52 60 55 53 58 75 76 75 77 78 80 86 84
24 25 24 25 26 28 29 27 28 31 35 38 40 43 46 49 49 45 44 46 48 50 53 58 62 68 76 70 70 69 72 69 68 66 66 71 64 56 50 43 46 47 47 47 46 46 48 60 69 69 69 70 70 71
24 24 22 23 25 25 26 24 27 30 35 39 46 51 47 46 54 48 55 49 47 46 49 52 55 69 73 68 72 71 66 68 69 69 73 71 66 59 56 50 46 48 50 48 42 40 42 46 45 59 64 66 68 71
24 23 22 21 21 23 24 23 26 29 37 42 50 59 53 54 54 53 52 47 47 44 46 52 60 64 65 63 62 62 64 62 64 72 69 66 66 62 60 54 52 53 53 51 51 46 42 39 40 41 50 63 66 64
23 23 21 20 21 23 21 24 27 34 40 44 50 56 58 56 55 54 51 46 46 44 45 51 53 53 54 55 54 59 62 70 69 70 65 62 63 66 64 61 58 58 56 58 56 53 49 44 40 38 39 42 53 65
24 23 22 20 20 19 21 25 29 35 40 45 50 52 56 58 58 61 57 53 52 54 57 55 55 57 55 59 59 63 67 76 73 67 64 58 66 69 70 67 62 59 56 56 59 59 57 53 48 46 42 37 37 42
24 24 22 20 18 18 23 27 32 39 42 45 49 52 55 58 58 63 68 68 69 70 73 75 72 71 72 68 70 79 78 74 68 62 59 64 68 66 63 62 59 54 51 51 48 56 49 46 53 48 46 43 39 36
24 22 22 23 20 19 25 30 34 39 42 46 51 54 58 63 72 75 76 71 74 74 82 77 77 74 77 83 84 85 74 64 55 54 61 67 65 60 55 53 52 49 47 49 50 46 45 44 42 41 41 42 45 42
23 24 24 24 23 22 29 34 36 44 44 51 58 61 63 65 73 76 78 71 74 77 78 81 82 84 89 96 90 74 67 57 57 60 65 63 55 49 47 47 50 53 55 51 51 50 49 47 45 43 41 40 42 46
25 25 25 24 24 26 31 34 41 50 52 58 64 67 65 69 72 66 66 74 74 71 80 84 91 92 94 81 73 64 55 57 60 62 55 49 44 45 46 48 51 56 60 61 58 54 54 52 50 48 46 45 45 45
25 25 25 25 28 29 30 32 48 54 57 62 67 69 69 68 68 68 72 73 66 67 72 81 86 86 80 72 62 52 50 61 63 54 53 47 44 43 43 46 50 55 63 64 65 64 60 59 55 51 50 49 47 46
25 26 25 27 31 32 35 46 51 58 62 62 65 66 69 71 73 74 69 61 64 66 67 73 72 67 57 52 46 49 53 73 60 56 59 57 53 53 52 48 50 55 62 65 65 65 66 63 65 60 55 54 51 50
28 25 27 37 40 38 42 47 52 56 62 62 64 65 69 70 72 69 64 61 63 62 61 70 61 54 54 46 44 48 51 56 65 67 61 65 75 70 62 63 65 61 61 60 60 64 70 70 70 70 66 62 58 56
30 27 31 40 47 47 48 54 58 64 62 66 66 66 67 71 71 64 59 61 59 55 60 63 59 54 50 46 45 48 54 59 65 69 76 78 64 72 70 70 74 72 68 66 66 67 69 70 73 76 75 71 66 62
33 30 32 35 42 52 54 57 60 65 72 71 70 68 68 70 69 63 60 60 55 50 53 58 56 51 45 47 50 54 63 65 62 61 63 62 61 63 66 74 88 86 84 79 74 71 74 78 81 84 81 78 73 69
39 35 41 45 51 54 55 58 63 72 73 71 67 65 69 68 69 65 62 54 49 47 51 51 51 50 50 50 50 46 49 62 63 55 53 54 62 79 82 76 78 79 81 78 80 79 82 83 81 83 84 82 77 74
36 39 45 46 49 51 60 70 74 70 69 68 65 65 69 71 71 67 60 51 44 44 45 49 51 50 50 45 38 37 40 45 47 52 52 67 74 63 67 77 77 67 65 66 70 78 84 84 85 85 84 82 80 76
35 40 44 48 53 56 65 70 69 72 68 67 67 62 64 69 73 69 62 52 45 42 40 41 36 35 34 32 32 31 33 36 42 50 53 56 66 70 67 69 72 71 70 67 69 77 82 85 86 85 82 83 84 82
37 41 47 49 52 61 67 67 69 67 63 65 66 63 66 72 76 74 65 52 39 33 31 30 30 30 31 31 31 31 34 38 44 49 52 54 56 56 52 58 68 72 68 65 67 73 78 84 86 85 85 83 83 85
37 41 44 48 51 58 61 67 72 71 64 61 62 64 68 73 77 77 66 54 38 31 28 28 28 29 30 32 31 32 33 34 35 38 42 46 47 48 50 55 59 62 64 64 69 76 81 85 88 88 87 87 88 87
45 47 49 49 55 59 60 63 66 65 63 60 62 65 71 74 78 84 74 60 40 31 27 28 27 27 29 31 31 32 31 30 29 30 31 34 40 45 49 51 53 57 62 66 71 78 84 86 86 87 85 84 81 81
50 54 56 56 55 54 54 60 63 59 62 60 60 68 74 77 82 80 73 59 42 30 27 27 26 27 28 29 31 30 27 27 28 32 35 38 41 44 47 49 50 56 60 64 67 67 72 72 73 74 74 73 71 70
52 56 57 60 61 59 60 74 70 67 66 59 61 68 76 80 84 85 78 57 41 29 26 25 25 26 27 28 29 27 28 29 31 32 34 36 38 39 41 44 47 51 55 58 60 62 62 63 64 64 64 63 61 58

GFSWCAN_prec_cthk_048.txt.gz
RH
41 36 30 24 23 26 28 28 32 39 46 46 53 60 68 74 70 69 72 70 65 66 61 64 64 69 80 83 87 85 88 94 97 97 97 97 98 98 98 98 93 86 87 84 90 93 91 87 97 95 95 79 80 72
43 36 28 24 23 26 28 28 30 37 45 50 52 59 63 70 76 74 73 66 65 64 64 69 68 67 65 69 81 89 90 95 98 98 98 98 98 97 98 98 98 98 93 98 97 94 92 98 93 98 96 92 90 81
42 35 26 23 24 27 28 29 29 34 41 50 53 54 66 73 77 74 70 65 61 61 72 76 75 75 72 65 61 77 91 94 97 97 97 98 98 97 97 98 98 98 98 98 98 97 98 97 97 97 99 96 91 83
40 34 24 22 23 26 28 30 29 31 38 46 53 54 69 73 68 63 65 66 65 65 80 80 77 74 79 69 62 59 67 85 94 94 96 97 98 97 98 98 98 98 98 98 98 98 97 98 98 98 99 97 90 85
39 33 23 22 22 25 28 30 30 28 36 45 51 55 64 71 65 61 62 66 70 75 78 77 83 70 75 76 68 60 55 58 85 91 92 96 97 97 97 96 98 98 98 98 98 97 98 96 98 97 98 96 92 86
38 25 22 23 24 24 28 30 28 29 33 39 50 53 57 65 64 60 61 61 68 70 74 78 74 73 70 66 69 67 55 52 53 70 91 91 93 95 97 98 97 97 98 98 98 98 98 98 98 97 95 90 94 89
36 21 21 24 26 25 27 29 27 28 34 38 47 52 54 57 58 57 59 59 66 63 70 73 80 74 64 62 66 68 67 53 51 50 51 68 84 81 88 97 90 92 95 97 95 95 97 96 95 95 98 97 97 94
29 20 21 25 25 25 27 27 26 30 34 38 41 46 50 53 54 54 54 55 59 61 65 70 71 79 66 64 63 67 66 60 51 52 50 48 50 60 77 76 75 76 84 92 97 95 97 97 96 98 98 98 96 94
24 20 23 26 27 29 30 27 27 32 34 36 40 42 47 49 52 54 52 52 52 58 64 69 70 72 69 69 62 65 64 65 56 58 54 52 51 55 50 58 74 62 62 74 90 95 96 98 97 96 98 97 98 98
23 21 23 25 28 30 30 27 28 32 34 36 40 44 50 50 49 53 50 51 53 57 62 59 64 68 68 70 66 63 64 61 65 57 61 60 67 59 51 48 51 56 56 52 62 80 88 88 90 87 94 96 93 95
22 22 22 23 25 26 27 27 27 30 34 38 45 50 47 45 49 49 51 50 50 54 56 53 58 58 67 70 66 64 66 63 67 62 60 64 64 63 57 53 53 51 48 51 50 51 68 83 83 81 84 85 92 97
22 22 22 22 23 24 24 26 25 28 33 40 46 49 50 51 56 47 47 47 50 52 52 52 56 61 68 68 67 68 67 67 67 59 61 65 62 59 57 52 52 56 56 51 49 51 50 53 70 79 77 76 79 84
22 22 21 21 21 22 23 24 24 27 32 39 46 55 54 51 58 54 68 58 57 52 50 52 57 63 71 70 75 73 70 68 58 69 73 68 62 56 58 57 54 55 59 60 57 53 51 49 53 55 64 71 71 72
22 21 21 21 20 20 22 22 24 29 36 44 48 58 52 56 58 60 59 58 54 57 60 61 69 76 77 76 69 73 69 66 67 80 77 69 67 59 61 60 59 58 57 66 60 56 57 54 51 48 50 53 63 66
22 21 21 22 21 20 20 20 24 31 39 46 47 52 53 55 60 62 62 61 60 61 67 75 81 80 82 74 66 68 73 75 79 79 68 67 64 77 73 72 66 59 57 60 66 62 63 58 55 52 49 46 48 56
22 22 23 22 20 18 18 21 26 34 40 44 49 51 56 58 65 70 73 72 70 71 76 74 83 78 81 74 73 80 86 85 83 73 63 58 67 75 76 75 70 59 54 53 54 56 57 55 53 53 49 46 45 46
22 23 23 22 20 18 19 24 30 38 44 47 50 54 58 61 67 71 77 79 78 77 81 78 81 83 83 86 96 93 87 81 65 60 58 62 66 61 58 57 58 53 53 52 51 50 48 49 47 45 47 46 50 49
24 23 22 22 23 20 20 27 34 42 47 51 59 62 64 64 67 72 76 73 75 79 78 77 89 95 98 98 95 79 85 69 56 54 60 62 61 54 48 48 50 54 60 59 55 50 48 50 49 47 44 45 47 47
24 24 24 23 24 22 28 33 35 48 50 55 57 63 64 67 70 72 63 61 68 69 68 76 85 88 90 83 73 76 74 57 60 61 59 52 45 43 44 48 52 58 64 65 62 58 58 50 49 47 46 44 48 44
25 24 25 24 24 25 29 36 41 52 55 59 60 64 66 70 70 70 66 68 62 58 63 68 75 72 73 69 69 69 60 57 68 73 66 55 47 45 46 44 51 55 63 65 64 61 66 63 58 57 49 46 49 50
25 25 25 25 28 27 30 37 51 54 57 57 61 64 67 69 69 71 67 59 58 59 62 64 72 65 61 59 50 51 58 59 78 70 63 60 58 58 61 62 57 61 62 64 69 68 65 66 64 62 61 58 57 57
26 24 25 25 30 33 35 47 54 54 56 58 63 63 64 67 71 68 59 58 65 59 52 54 56 53 54 51 44 46 53 65 79 66 66 67 70 77 77 76 72 68 72 72 68 69 70 65 67 67 65 64 61 55
27 28 27 34 39 38 44 47 53 55 58 64 65 63 65 68 67 61 58 57 58 52 63 69 67 52 49 48 49 63 58 58 64 65 67 68 68 76 77 77 73 71 76 73 67 69 70 63 67 70 70 70 66 66
27 31 31 41 48 50 47 52 54 57 64 67 64 60 62 64 64 61 59 61 53 54 64 70 67 53 53 55 56 56 55 56 62 66 74 73 62 62 64 65 72 74 76 83 83 81 83 79 67 74 71 73 71 69
34 30 31 38 44 50 52 52 56 65 68 67 61 57 63 65 69 64 61 56 49 49 51 56 61 57 54 55 59 58 48 51 56 70 74 64 58 61 77 82 81 75 74 88 87 84 84 84 79 80 79 76 76 73
37 33 36 43 48 52 52 57 66 68 67 64 61 59 63 71 74 74 65 55 49 52 51 49 46 51 51 42 45 45 47 47 48 62 60 59 63 80 85 84 72 74 70 68 75 86 91 91 89 89 86 79 73 77
34 35 41 45 49 50 56 63 69 67 68 65 65 61 63 69 76 77 75 63 51 49 42 39 38 36 34 33 33 33 34 37 41 47 52 58 59 63 69 69 70 72 67 71 78 80 83 85 88 87 83 83 82 78
32 38 42 46 47 51 58 64 65 66 63 63 63 63 61 69 77 84 83 63 46 37 32 28 27 28 30 30 30 34 34 37 42 46 49 56 56 55 59 56 60 63 65 60 73 80 85 88 86 85 84 85 82 81
34 39 43 48 51 55 63 59 65 68 68 64 60 58 68 74 75 78 78 59 44 39 31 27 27 29 31 30 30 31 36 41 48 52 58 63 61 55 56 61 64 66 65 63 66 77 82 83 84 84 83 85 84 82
36 42 44 45 48 55 57 62 68 67 65 62 60 57 69 77 78 81 81 64 48 42 33 26 27 29 32 34 35 31 30 31 35 42 48 50 51 53 59 60 61 63 65 70 76 75 77 82 82 85 86 86 87 85
44 45 47 50 50 53 59 64 64 67 64 64 71 64 68 76 79 81 84 68 50 42 32 26 24 26 30 30 33 34 31 32 31 31 37 43 50 55 56 58 59 60 65 69 72 74 77 78 79 79 80 79 76 76
48 52 55 59 62 67 64 60 65 73 78 84 82 73 66 76 80 81 84 67 51 42 31 26 24 25 26 25 26 28 31 35 37 38 40 43 48 51 52 53 56 58 61 62 63 64 63 65 65 65 65 64 64 63
50 54 57 60 64 74 75 76 78 81 82 85 83 73 68 76 83 81 75 67 52 40 30 25 23 24 24 24 25 28 30 31 32 34 36 39 42 45 50 52 54 57 58 61 61 60 60 61 61 63 64 68 71 75